Miami, FL

10:55 AM EST on December 08, 2019 (GMT -0500)
Miami International

Weather History for KMIA - September, 2019

Change the Weather History Date:

Wednesday, September 18, 2019

  Actual Average Record
Temperature  
Mean Temperature 86 °F 83 °F  
Max Temperature 91 °F 89 °F 95 °F (1989)
Min Temperature 80 °F 77 °F 69 °F (1985)
Degree Days  
Heating Degree Days 0 0  
Month to date heating degree days 0 0  
Since 1 July heating degree days 0 0  
Cooling Degree Days 21 18  
Month to date cooling degree days 390 326  
Year to date cooling degree days 3868 3401  
Growing Degree Days 36 (Base 50)    
Moisture  
Dew Point 71 °F    
Average Humidity 62    
Maximum Humidity 79    
Minimum Humidity 44    
Precipitation  
Precipitation T in 0.35 in 8.00 in (1926)
Month to date precipitation 2.39 5.88  
Year to date precipitation 54.31 46.28  
Snow  
Snow 0.00 in - - ()
Month to date snowfall 0.0  
Since 1 July snowfall 0.0  
Since 1 September snowfall 0.0  
Snow Depth 0.00 in    
Sea Level Pressure  
Sea Level Pressure 29.92 in    
Wind  
Wind Speed 9 mph (NNE)    
Max Wind Speed 17 mph    
Max Gust Speed 25 mph    
Visibility 10 miles    
Events Rain    
T = Trace of Precipitation, MM = Missing Value Source: NWS Daily Summary

Daily Weather History Graph

Daily Weather History Graph

Search for Another Location

Airport or City:

Astronomy

Sep. 18, 2019 Rise Set
Actual Time 7:08 AM EDT 7:22 PM EDT
Civil Twilight 6:45 AM EDT 7:45 PM EDT
Nautical Twilight 6:18 AM EDT 8:12 PM EDT
Astronomical Twilight 5:51 AM EDT 8:39 PM EDT
Moon 10:19 PM EDT (9/18) 10:48 AM EDT (9/18)
Length of Visible Light 13h 00m
Length of Day
12h 14m
Waning Gibbous, 82% of the Moon is Illuminated
Sep 18
Waning Gibbous
Sep 21
Last Quarter
Sep 28
New
Oct 5
First Quarter
Oct 13
Full

Hourly Weather History & Observations

Time (EDT) Temp. Heat Index Dew Point Humidity Pressure Visibility Wind Dir Wind Speed Gust Speed Precip Events Conditions
12:53 AM 82.9 °F 88.0 °F 72.0 °F 69% 29.92 in 10.0 mi North 3.5 mph - N/A   Clear
1:53 AM 82.9 °F 88.0 °F 72.0 °F 69% 29.91 in 10.0 mi NNW 3.5 mph - N/A   Clear
2:53 AM 81.0 °F 85.2 °F 72.0 °F 74% 29.91 in 10.0 mi NW 4.6 mph - N/A   Clear
3:53 AM 81.0 °F 85.8 °F 73.0 °F 77% 29.91 in 10.0 mi North 3.5 mph - N/A   Scattered Clouds
4:53 AM 80.1 °F 84.2 °F 73.0 °F 79% 29.90 in 10.0 mi NNE 4.6 mph - N/A   Partly Cloudy
5:53 AM 80.1 °F 84.2 °F 73.0 °F 79% 29.91 in 10.0 mi NW 3.5 mph - N/A   Partly Cloudy
6:53 AM 80.1 °F 84.2 °F 73.0 °F 79% 29.92 in 10.0 mi NW 4.6 mph - N/A   Scattered Clouds
7:53 AM 80.1 °F 84.2 °F 73.0 °F 79% 29.94 in 8.0 mi NNE 6.9 mph - 0.00 in Rain Light Rain
8:53 AM 84.0 °F 91.2 °F 73.9 °F 72% 29.94 in 10.0 mi North 4.6 mph - 0.00 in   Scattered Clouds
9:53 AM 86.0 °F 93.0 °F 73.0 °F 65% 29.94 in 10.0 mi NNE 8.1 mph - N/A   Scattered Clouds
10:53 AM 88.0 °F 94.7 °F 72.0 °F 59% 29.94 in 10.0 mi NE 13.8 mph - N/A   Scattered Clouds
11:53 AM 89.1 °F 95.0 °F 71.1 °F 55% 29.94 in 10.0 mi NE 10.4 mph 19.6 mph N/A   Mostly Cloudy
12:53 PM 91.0 °F 94.3 °F 66.9 °F 45% 29.93 in 10.0 mi ENE 10.4 mph 19.6 mph N/A   Scattered Clouds
1:53 PM 90.0 °F 96.4 °F 71.1 °F 54% 29.93 in 10.0 mi ENE 11.5 mph 20.7 mph N/A   Scattered Clouds
2:53 PM 90.0 °F 93.6 °F 68.0 °F 48% 29.92 in 10.0 mi NE 15.0 mph 20.7 mph N/A   Scattered Clouds
3:53 PM 89.1 °F 92.9 °F 68.0 °F 50% 29.91 in 10.0 mi NE 15.0 mph 19.6 mph N/A   Scattered Clouds
4:53 PM 88.0 °F 91.4 °F 68.0 °F 51% 29.90 in 10.0 mi NE 13.8 mph 19.6 mph N/A   Scattered Clouds
5:53 PM 88.0 °F 92.1 °F 69.1 °F 53% 29.91 in 10.0 mi NE 10.4 mph 19.6 mph N/A   Scattered Clouds
6:53 PM 84.9 °F 88.8 °F 69.1 °F 59% 29.91 in 10.0 mi NE 10.4 mph 19.6 mph N/A   Partly Cloudy
7:53 PM 84.0 °F 87.8 °F 69.1 °F 61% 29.92 in 10.0 mi NNE 10.4 mph - N/A   Partly Cloudy
8:53 PM 84.0 °F 87.8 °F 69.1 °F 61% 29.93 in 10.0 mi Variable 6.9 mph - N/A   Partly Cloudy
9:53 PM 84.0 °F 89.0 °F 71.1 °F 65% 29.95 in 10.0 mi NE 10.4 mph - N/A   Mostly Cloudy
10:53 PM 82.9 °F 86.5 °F 69.1 °F 63% 29.95 in 10.0 mi NNE 10.4 mph - N/A   Scattered Clouds
11:53 PM 82.9 °F 87.0 °F 70.0 °F 65% 29.96 in 10.0 mi NE 8.1 mph - N/A   Scattered Clouds